Location: Unspecified
(42.9300°N, 71.1866°W)
Time: 22:22:50
(UTC-04:00)

CZ-3 Stage 3 - Visible Passes

Search period start: 04 August 2015 00:00
Search period end: 14 August 2015 00:00
Orbit: 436 x 34789 km, 31.0° (Epoch: 04 August)

Date Brightness Start Highest point End Pass type
(mag) Time Alt. Az. Time Alt. Az. Time Alt. Az.
05 Aug 6.2 01:44:00 32° S 01:54:32 44° SE 10:45:04 10° SE visible
07 Aug 6.9 05:07:31 10° WSW 06:11:17 74° S 14:15:35 10° SSW visible
08 Aug 6.2 01:38:56 35° S 01:48:45 45° SE 10:39:21 10° SE visible
10 Aug 6.9 05:02:09 10° WSW 06:07:17 74° S 14:08:23 10° SSW visible
11 Aug 6.1 01:33:52 37° S 01:42:58 47° SE 10:33:35 10° SE visible
13 Aug 6.9 04:56:46 10° WSW 06:03:20 73° S 14:01:00 10° SSW visible
